Theta_e
341 341 343 335 320 316 311 315 319 318 319 329 329 326 325 327 324 321 346 348 348 350 357 356 359 358 357 356 356 355 355 355 354 354 354 354 354 353 353 353 354 354 354 354 353 353 353 353 353
339 337 337 328 315 308 311 318 315 321 326 331 330 328 328 328 334 333 336 349 348 353 357 355 358 358 357 356 355 355 355 354 354 353 353 352 352 351 351 352 352 352 352 353 353 353 353 353 352
337 334 327 323 315 310 310 318 320 325 329 328 327 331 329 330 333 335 341 350 351 352 354 360 359 358 356 356 355 354 353 353 352 352 351 351 352 351 352 352 353 353 353 354 354 353 354 354 353
331 329 327 317 312 316 317 320 323 323 327 329 328 324 334 341 338 343 345 347 347 347 351 359 359 358 356 355 354 353 352 352 351 351 352 353 353 353 353 353 354 353 354 355 355 355 354 354 354
328 325 319 314 314 318 324 325 324 322 324 325 326 323 330 342 346 348 348 345 343 345 348 355 358 357 356 355 354 352 351 351 351 351 351 352 353 354 354 355 355 354 354 354 355 354 353 354 353
323 323 316 310 313 319 325 329 325 323 325 326 324 325 332 344 345 347 348 344 345 345 347 354 356 357 356 354 353 352 351 352 350 350 351 353 353 352 352 353 354 351 351 353 351 348 349 352 352
318 318 312 312 313 315 323 331 326 322 323 323 328 322 335 339 346 348 346 345 346 345 346 349 349 355 355 355 355 353 352 350 349 350 352 353 347 351 351 351 348 345 347 347 344 340 344 347 350
320 319 312 314 312 313 327 330 332 326 322 331 330 321 327 339 343 346 344 343 344 343 343 345 348 347 349 349 355 353 351 349 349 351 351 347 341 346 339 341 346 346 346 344 339 336 337 342 344
321 314 311 312 313 315 327 326 332 334 328 327 329 329 334 344 343 341 340 340 341 342 344 345 345 346 348 349 351 351 351 351 352 352 348 343 343 340 340 340 338 338 345 343 340 339 339 341 344
317 314 311 316 318 318 323 326 330 328 326 324 327 332 337 343 341 340 339 337 338 340 344 346 347 348 347 346 350 352 351 351 353 349 348 341 342 342 337 337 336 335 338 339 343 342 343 341 330
315 312 315 316 318 321 322 324 330 327 322 325 324 327 336 340 341 338 337 338 340 343 346 347 348 349 348 348 352 350 350 351 353 353 347 345 341 340 339 338 337 339 339 335 336 334 332 330 330
312 315 315 316 319 319 322 327 327 328 326 329 330 331 333 338 339 340 339 340 342 344 347 347 347 350 351 352 351 353 351 352 350 348 346 345 339 340 339 337 338 337 334 335 335 333 334 335 336
313 314 315 317 321 321 325 324 325 326 330 333 331 334 331 336 339 342 345 346 347 346 347 349 351 352 354 355 354 355 352 349 348 343 345 340 338 339 338 338 333 329 328 328 328 330 332 333 333
314 314 314 318 321 321 322 323 326 325 331 331 333 334 334 333 339 343 345 345 349 350 351 351 353 355 351 351 351 349 346 345 342 344 342 341 339 336 329 327 325 325 325 325 325 325 328 328 329
314 311 313 315 319 319 324 320 322 327 330 330 333 335 334 334 339 341 344 344 345 349 351 350 351 348 344 344 344 343 341 341 342 342 339 335 334 332 331 325 324 324 326 325 325 325 325 325 327
313 313 309 314 317 318 321 311 319 325 328 328 331 333 334 336 338 342 344 342 345 346 348 346 340 341 343 342 342 341 342 342 342 341 338 333 330 329 329 325 324 326 325 323 323 322 322 323 323
312 307 308 310 315 316 317 312 317 323 324 327 330 333 334 336 339 342 341 340 341 346 347 345 345 341 342 344 342 343 340 341 343 342 336 334 328 328 329 325 325 328 324 322 321 321 322 321 322
306 307 308 308 312 314 313 314 316 321 325 326 330 332 334 335 337 341 340 339 340 341 347 348 346 344 344 343 344 340 340 342 343 340 334 331 329 328 328 326 326 326 322 321 321 322 321 321 322
310 308 307 310 313 311 311 312 316 321 324 327 328 330 333 335 339 341 341 339 338 338 342 344 344 346 343 340 336 337 338 341 341 336 332 331 329 328 329 326 325 325 322 321 321 320 319 319 322
310 308 308 310 313 313 312 311 317 321 323 326 329 330 332 335 337 339 340 339 336 337 338 342 344 346 345 341 343 342 340 338 334 331 332 331 330 330 328 327 324 324 321 321 320 317 314 314 318
310 309 308 308 311 313 311 310 313 318 324 326 328 330 332 332 333 337 339 340 340 339 340 341 344 345 346 345 344 341 340 335 330 330 328 329 329 328 327 326 324 323 321 317 318 317 315 312 315
307 312 310 309 308 304 310 302 311 314 316 319 323 324 324 325 329 334 336 338 340 340 339 338 341 344 345 343 340 339 333 328 329 328 327 328 328 327 326 324 322 320 317 317 316 314 313 313 308
309 312 310 308 308 308 307 304 310 314 312 315 318 320 322 323 327 330 334 337 338 338 339 341 341 343 342 339 339 335 332 329 327 325 328 328 327 324 322 320 319 318 316 317 314 316 313 312 312
313 311 309 309 308 302 304 304 306 310 313 315 317 319 321 323 326 328 335 338 339 340 341 341 340 342 341 338 335 334 332 328 325 325 322 320 320 319 319 318 319 319 318 317 316 316 316 315 314
313 310 303 300 300 298 305 304 307 311 315 316 316 318 321 323 324 325 327 329 335 335 335 340 337 339 338 332 330 328 329 329 327 324 321 320 317 316 317 319 318 317 317 315 316 316 314 315 314
310 310 301 294 295 298 305 302 307 313 316 318 319 320 321 324 324 325 327 331 330 334 334 334 334 334 331 329 327 328 329 324 322 324 322 320 316 315 319 317 318 316 314 315 317 315 313 315 314
310 307 311 305 305 301 303 306 312 313 313 316 317 318 320 323 323 326 327 332 333 334 331 332 331 330 328 326 329 327 327 326 324 324 323 318 318 316 316 317 316 313 314 315 315 312 313 314 313
313 313 305 307 296 295 301 302 304 309 311 314 316 317 319 324 323 325 328 330 333 333 333 329 328 327 325 324 326 324 325 324 324 323 320 318 317 317 316 316 313 312 313 313 314 313 313 313 314
311 310 309 309 305 297 296 300 311 311 313 315 317 319 319 320 322 324 326 330 330 329 325 326 326 324 323 324 325 324 320 323 322 319 317 317 317 316 316 314 312 311 311 314 313 313 312 311 312
312 310 309 304 301 304 302 302 313 314 315 318 318 318 320 321 320 321 322 325 325 325 325 323 325 323 322 322 322 319 323 320 320 317 317 317 315 316 315 311 309 310 312 313 312 311 311 311 311
Wind_Speed
10 10 4 8 4 9 15 12 5 10 5 7 3 3 9 5 7 5 8 7 9 14 15 15 11 10 9 9 8 7 7 7 6 6 6 5 4 4 3 3 4 4 5 4 4 4 4 5 6
8 5 6 6 4 12 12 7 11 8 7 5 3 2 4 10 7 13 12 9 13 14 13 13 12 10 8 8 8 7 6 5 5 5 4 3 3 3 3 3 3 3 4 4 4 5 5 5 5
7 6 7 1 9 12 12 10 9 10 6 5 2 2 3 8 7 6 13 13 13 13 13 14 12 10 8 7 7 7 5 4 3 2 2 2 1 1 2 3 3 4 5 5 5 5 6 7 8
4 7 6 4 13 10 9 9 8 7 7 3 3 6 7 5 7 6 14 13 13 13 13 15 11 9 8 7 6 5 4 3 2 1 2 3 3 4 3 3 4 4 5 6 6 7 7 8 8
6 5 4 7 11 6 2 7 5 6 5 5 2 5 6 8 8 11 12 11 10 10 11 14 10 8 7 6 5 4 2 1 2 3 4 4 5 4 5 4 5 5 5 5 6 7 8 8 7
4 4 3 7 9 5 2 4 3 4 4 5 3 5 8 10 9 11 11 10 9 10 8 13 11 8 7 5 4 3 2 1 2 3 4 5 5 4 3 2 1 4 4 4 5 5 6 8 7
6 5 7 5 8 6 5 3 4 4 4 2 2 4 7 9 9 10 9 9 8 9 9 8 11 9 7 6 5 4 2 1 2 2 4 5 5 6 6 3 3 4 3 2 1 3 5 5 5
7 5 3 1 4 10 8 8 1 3 5 4 4 3 8 9 11 11 10 9 8 9 9 9 6 11 9 11 7 4 3 1 1 1 3 1 3 2 3 3 10 9 7 3 3 2 2 3 2
5 7 6 6 4 8 10 10 5 3 6 8 8 2 6 15 12 11 9 9 9 7 6 6 7 7 4 2 8 7 6 5 5 7 4 8 2 4 5 8 5 7 7 7 8 7 7 7 10
9 6 4 4 1 1 8 10 11 7 8 9 9 6 4 13 13 11 9 9 8 9 8 6 5 4 5 4 4 6 4 5 1 2 3 5 4 5 7 5 4 5 5 8 9 9 9 12 10
1 5 5 1 4 5 4 9 8 10 9 8 11 10 12 12 12 11 10 8 6 6 5 7 6 5 5 4 3 4 4 4 4 2 4 2 5 4 6 5 5 7 5 8 7 8 10 14 11
9 1 3 4 2 6 8 7 10 12 1 5 8 8 14 14 12 10 8 8 6 5 6 7 6 6 5 4 5 4 5 3 3 1 3 2 5 4 5 5 8 8 8 10 10 8 12 13 13
7 1 1 2 3 7 6 10 11 9 9 3 6 8 12 12 10 8 5 3 4 6 7 6 6 6 5 6 5 6 4 4 1 4 1 4 5 4 5 6 8 9 10 11 11 11 11 12 14
1 2 2 1 3 3 8 6 6 4 9 9 7 9 12 12 10 7 7 7 6 5 4 5 7 6 5 5 5 3 3 3 5 2 2 2 5 5 7 9 9 9 9 10 11 12 12 11 13
4 8 6 4 3 2 7 8 12 14 3 9 7 8 11 10 8 7 4 4 4 6 3 5 5 6 5 6 5 3 4 2 2 1 4 5 4 6 8 7 7 7 8 11 10 11 11 12 12
7 8 10 7 5 3 8 9 5 7 7 11 7 8 10 10 8 6 6 3 3 5 7 5 5 6 6 5 5 3 2 2 2 2 3 5 4 4 7 8 7 8 9 9 9 10 11 11 11
6 8 6 7 1 4 10 10 9 6 10 10 6 8 9 11 7 7 6 3 3 6 7 7 7 7 6 5 4 3 3 1 1 1 5 3 6 7 7 8 7 9 10 10 10 10 11 11 11
7 3 6 6 4 5 7 12 4 5 7 7 3 6 7 9 10 8 6 3 3 4 6 7 7 5 5 3 3 3 3 3 3 4 4 4 6 7 7 9 7 8 9 10 10 12 11 11 11
3 3 2 5 3 4 3 6 5 6 3 3 5 6 6 7 7 7 8 4 4 4 5 6 6 6 5 5 5 5 5 4 4 4 5 6 6 8 7 8 8 9 9 10 11 11 14 11 10
1 3 5 2 4 9 2 6 2 6 4 1 1 4 4 7 7 9 9 6 5 3 4 5 7 7 7 5 4 4 5 5 5 5 5 6 7 9 9 8 9 10 11 12 10 6 10 10 9
5 9 8 9 1 2 6 11 1 5 4 4 3 2 3 4 6 7 8 9 9 7 5 5 6 6 7 6 3 4 4 5 8 4 6 4 8 9 9 10 10 11 11 11 9 9 11 11 11
2 6 7 8 9 5 3 3 7 3 6 6 9 8 7 6 6 2 3 4 6 7 5 4 4 5 5 3 4 4 7 7 6 7 6 8 8 9 10 12 13 13 11 11 8 8 9 10 10
8 5 6 5 4 8 9 10 10 2 5 6 6 6 5 5 3 1 1 1 1 1 4 3 3 5 4 4 4 5 5 7 6 7 8 10 8 10 11 12 13 10 8 7 9 10 9 9 7
3 6 3 4 4 6 7 8 12 4 2 4 4 7 5 5 2 0 1 1 1 1 0 3 4 3 3 4 3 4 5 7 8 9 9 9 10 9 11 12 10 11 11 11 10 10 11 10 8
4 10 2 3 3 4 6 8 9 4 1 6 6 7 7 4 4 3 2 2 1 0 1 2 1 2 2 4 4 4 5 6 9 9 9 12 10 10 10 10 11 10 12 12 12 10 11 11 10
6 8 7 8 7 10 5 4 8 3 4 7 10 10 9 2 4 2 0 1 2 1 1 1 1 3 4 4 3 4 5 7 8 9 10 10 10 10 11 11 11 13 12 13 11 9 9 9 8
4 4 3 6 5 7 5 2 11 1 5 9 11 11 9 5 4 3 2 2 3 1 1 4 3 4 4 2 3 4 5 7 9 10 10 9 11 10 11 12 12 12 11 11 9 9 9 8 7
5 4 4 3 7 9 9 5 4 11 9 10 9 9 6 8 4 4 3 2 4 3 2 4 5 5 2 4 4 4 5 8 9 10 12 12 10 11 12 12 11 11 10 11 10 9 9 8 6
6 6 1 5 4 9 8 10 10 9 12 13 13 13 5 4 3 3 2 3 5 4 6 6 6 5 4 4 6 5 7 8 9 11 11 10 10 10 12 11 10 8 11 11 9 10 10 8 7
3 3 3 6 8 4 7 7 5 11 12 11 12 7 3 4 4 3 5 3 4 6 6 5 5 6 4 4 2 3 7 9 10 11 11 10 10 11 12 8 8 10 12 9 9 9 8 9 8
Wind_Direction
166 190 230 240 212 78 61 73 79 76 119 64 88 311 27 26 3 46 130 140 176 150 138 161 155 154 152 143 125 113 112 114 113 105 98 92 94 90 71 49 32 18 13 16 12 5 1 355 349
171 191 230 272 45 77 63 55 73 65 60 88 98 247 40 68 48 109 134 144 154 143 148 146 152 160 153 141 130 130 129 125 116 111 109 103 78 48 32 14 4 353 345 343 346 342 332 325 317
200 256 275 36 47 50 73 62 65 79 103 127 143 18 33 81 101 113 101 149 146 154 151 121 154 161 158 148 148 142 135 131 116 95 79 75 48 22 355 347 330 331 331 333 330 327 321 315 308
222 198 218 48 75 70 44 80 81 110 93 90 67 85 115 48 133 114 140 151 153 156 146 129 153 163 164 161 154 143 147 139 134 107 27 2 354 346 344 345 335 329 319 324 324 324 323 314 307
234 247 162 80 88 85 65 74 108 96 91 104 20 98 87 87 96 125 138 160 156 150 146 147 159 165 165 166 164 157 153 109 24 30 12 2 347 338 337 338 340 345 338 334 333 333 332 328 313
242 269 217 94 94 100 128 116 116 72 90 98 198 118 80 111 141 133 146 156 152 151 154 133 156 169 171 173 181 167 136 41 19 16 8 355 350 345 349 334 350 344 341 345 346 352 5 1 3
316 290 45 63 88 158 133 175 184 96 126 107 350 153 103 159 133 141 149 150 157 153 168 162 167 168 180 188 190 182 149 9 4 4 2 2 23 34 42 31 36 5 10 3 353 358 0 356 7
288 269 182 82 122 93 147 174 181 183 112 102 207 107 137 148 150 148 150 157 167 165 171 171 191 176 191 169 182 193 175 187 283 339 23 339 198 36 69 251 37 353 328 262 236 266 289 273 273
269 247 130 113 188 102 140 191 142 115 166 198 183 334 50 136 154 150 153 157 174 162 171 176 184 164 214 153 137 195 198 195 216 204 175 226 327 349 310 79 357 339 317 291 283 279 259 252 234
262 286 79 23 35 241 163 203 153 187 192 197 204 189 154 152 168 162 173 174 173 163 173 179 199 193 201 210 202 210 185 229 255 307 313 279 349 332 308 284 263 263 278 280 266 271 279 255 277
181 287 51 303 280 279 205 207 174 213 195 218 209 178 161 170 182 177 184 171 183 147 165 177 180 208 239 212 206 219 220 213 185 253 290 311 314 341 300 304 307 334 255 283 277 285 266 296 309
265 318 291 23 298 223 216 209 203 220 277 315 196 166 173 180 182 192 200 165 168 174 191 178 195 199 222 234 218 243 250 227 242 165 257 265 275 319 336 335 330 321 324 323 294 297 298 296 283
234 36 347 219 210 215 203 223 231 214 219 138 198 186 190 177 177 179 190 216 193 210 188 200 202 212 238 245 257 264 267 226 190 229 243 310 316 344 330 343 326 328 327 316 316 306 302 294 282
0 284 109 188 162 208 231 210 228 230 212 212 237 199 188 181 167 166 189 195 212 232 214 223 214 203 210 228 229 191 216 165 226 257 2 27 338 355 347 342 343 327 330 324 316 310 309 292 293
184 214 181 63 161 126 246 202 233 252 174 230 212 201 181 184 170 198 179 200 211 196 175 177 189 193 196 169 185 196 204 231 265 327 18 28 345 14 349 339 317 326 329 308 307 304 297 290 287
212 215 208 75 185 120 222 257 153 257 244 244 201 191 185 184 192 169 194 205 178 172 175 176 179 169 179 173 200 216 178 227 59 65 280 313 357 8 326 326 324 346 307 310 313 310 307 304 299
178 66 76 113 332 166 228 271 58 339 264 250 223 197 191 167 172 185 189 171 160 180 181 188 186 191 189 184 226 243 63 190 134 216 264 342 318 321 320 316 323 329 312 318 318 322 318 305 294
33 118 108 52 75 240 218 259 2 2 305 243 223 203 204 195 194 186 192 168 118 168 198 206 201 188 206 209 211 215 223 221 254 251 271 296 310 311 302 312 319 308 312 319 333 313 312 299 287
44 29 33 104 78 264 314 286 335 350 285 183 211 204 198 210 193 184 203 172 187 199 202 212 210 197 221 223 245 238 271 262 273 273 282 287 293 295 295 295 316 309 308 320 303 317 316 307 303
303 305 43 157 43 280 290 274 329 22 44 336 213 176 191 198 200 211 210 208 236 254 229 219 231 216 224 232 260 322 328 316 314 316 315 298 291 284 285 317 311 324 312 310 306 314 307 305 302
51 351 344 329 347 205 286 233 174 63 95 133 179 179 181 201 221 214 212 213 227 228 231 224 227 230 234 266 247 249 257 229 235 237 285 323 289 301 313 316 316 311 307 305 326 303 305 299 298
333 5 313 299 274 342 338 352 125 61 107 109 136 143 152 176 185 170 230 234 222 244 204 237 226 220 211 225 239 265 295 298 339 285 323 310 318 318 314 318 323 318 312 319 314 318 307 296 289
48 352 342 307 258 225 56 273 105 167 155 130 137 154 179 190 100 201 161 109 289 179 220 164 175 184 168 214 274 273 288 314 323 317 316 306 297 313 324 327 321 320 307 312 305 295 296 291 282
131 266 224 217 216 213 38 310 94 82 352 158 183 211 213 220 171 223 54 329 240 175 192 158 164 166 202 240 247 274 299 322 324 330 311 321 325 322 325 326 314 323 315 305 299 295 286 283 276
302 342 292 287 331 11 23 267 48 25 219 286 274 235 227 180 231 208 200 236 91 279 13 39 81 242 228 237 252 297 324 319 301 324 323 328 319 324 321 323 318 315 312 299 286 286 286 284 279
41 332 13 336 350 343 118 11 78 29 296 277 269 269 276 230 259 203 131 293 288 100 104 182 200 232 219 248 317 331 320 319 313 337 329 315 317 319 324 310 307 315 305 290 289 284 286 287 275
103 21 13 305 188 266 39 65 225 213 280 254 260 260 253 244 248 209 163 231 263 268 311 291 261 239 249 311 313 313 330 334 329 321 316 313 313 323 306 316 313 309 297 295 301 290 290 287 288
339 103 289 282 336 324 347 299 315 347 336 331 281 273 263 245 233 190 212 218 247 248 256 251 253 255 280 285 298 348 347 316 322 316 315 313 316 305 312 308 314 299 300 296 293 292 288 287 294
172 183 64 276 330 323 318 330 38 357 339 325 319 329 297 241 266 213 243 219 237 244 267 231 247 244 258 310 340 348 317 326 322 318 316 310 308 318 317 319 307 298 291 293 298 297 302 299 296
322 17 329 331 342 332 281 304 48 346 330 332 331 336 62 8 14 328 289 256 237 277 287 279 278 286 294 303 244 297 321 319 320 321 310 310 316 312 318 326 302 290 289 307 308 302 313 304 304